Location: Unspecified
(0.0000°N, 0.0000°E)
Time: 17:32:08
(UTC+00:00)

BlueWalker 3 - Pass Details

Date: 18 March 2026
Orbit: 449 x 457 km, 53.2° (Epoch: 17 April)

Event Time Altitude Azimuth Distance (km) Brightness Sun altitude
Rises 18:30:47 0° 208° (SSW) 2,450 5.9 -5.7°
Maximum altitude 18:36:26 60° 124° (SE) 518 1.8 -7.1°
Drops below altitude 10° 18:39:56 10° 43° (NE) 1,575 4.1 -8.0°
Enters shadow 18:41:49 - 40° (NE) 2,340 4.9 -8.5°
